Weather History for Big Bear City, CA

Change the Weather History Date:

Friday, November 2, 2012

  Actual Average (KBUO) Record (KBUO)
Temperature  
Mean Temperature 41 °F -  
Max Temperature 59 °F 69 °F 86 °F (1997)
Min Temperature 23 °F 47 °F 42 °F (1998)
Degree Days  
Heating Degree Days 24    
Moisture  
Dew Point 10 °F    
Average Humidity 32    
Maximum Humidity 51    
Minimum Humidity 13    
Precipitation  
Precipitation 0.00 in - - ()
Sea Level Pressure  
Sea Level Pressure 30.13 in    
Wind  
Wind Speed 2 mph (ENE)    
Max Wind Speed 10 mph    
Max Gust Speed 17 mph    
Visibility 10 miles    
Events      
Averages and records for this station are not official NWS values.
T = Trace of Precipitation, MM = Missing Value Source: NWS Daily Summary

Daily Weather History Graph

Daily Weather History Graph

Search for Another Location

Airport:

Trip Planner

Search our weather history database for the weather conditions in past years. The results will help you decide how hot, cold, wet, or windy it might be!

Date:

Astronomy

Nov. 02, 2012 Rise Set
Actual Time 7:08 AM PDT 5:52 PM PDT
Civil Twilight 6:42 AM PDT 6:18 PM PDT
Nautical Twilight 6:13 AM PDT 6:48 PM PDT
Astronomical Twilight 5:43 AM PDT 7:17 PM PDT
Moon 8:49 PM PDT (11/2) 10:27 AM PDT (11/2)
Length of Visible Light 11h 36m
Length of Day
10h 44m
Waning Gibbous, 86% of the Moon is Illuminated
Nov 2
Waning Gibbous
Nov 6
Last Quarter
Nov 13
New
Nov 20
First Quarter
Nov 28
Full

Hourly Weather History & Observations

Time (PDT) Temp. Windchill Dew Point Humidity Pressure Visibility Wind Dir Wind Speed Gust Speed Precip Events Conditions
12:15 AM 28.4 °F - 3.2 °F 34% 30.12 in 10.0 mi Calm Calm - N/A   Clear
12:35 AM 28.4 °F - 8.6 °F 43% 30.11 in 10.0 mi Calm Calm - N/A   Clear
12:55 AM 28.4 °F - 5.0 °F 37% 30.11 in 10.0 mi Calm Calm - N/A   Clear
1:15 AM 28.4 °F - 3.2 °F 34% 30.11 in 10.0 mi Calm Calm - N/A   Clear
1:35 AM 28.4 °F - 3.2 °F 34% 30.11 in 10.0 mi Calm Calm - N/A   Clear
1:55 AM 26.6 °F - 3.2 °F 37% 30.11 in 10.0 mi Calm Calm - N/A   Clear
2:15 AM 26.6 °F - 3.2 °F 37% 30.11 in 10.0 mi Calm Calm - N/A   Clear
2:35 AM 26.6 °F - 3.2 °F 37% 30.11 in 10.0 mi Calm Calm - N/A   Clear
2:55 AM 26.6 °F - 3.2 °F 37% 30.11 in 10.0 mi Calm Calm - N/A   Clear
3:15 AM 26.6 °F - 5.0 °F 40% 30.11 in 10.0 mi Calm Calm - N/A   Clear
3:35 AM 26.6 °F - 5.0 °F 40% 30.10 in 10.0 mi Calm Calm - N/A   Clear
3:55 AM 26.6 °F - 3.2 °F 37% 30.10 in 10.0 mi Calm Calm - N/A   Clear
4:15 AM 24.8 °F - 3.2 °F 40% 30.10 in 10.0 mi Calm Calm - N/A   Clear
4:35 AM 26.6 °F - 5.0 °F 40% 30.10 in 10.0 mi Calm Calm - N/A   Clear
4:55 AM 24.8 °F - 3.2 °F 40% 30.10 in 10.0 mi Calm Calm - N/A   Clear
5:15 AM 24.8 °F - 5.0 °F 43% 30.10 in 10.0 mi Calm Calm - N/A   Clear
5:35 AM 24.8 °F - 5.0 °F 43% 30.11 in 10.0 mi Calm Calm - N/A   Clear
5:55 AM 24.8 °F - 5.0 °F 43% 30.10 in 10.0 mi Calm Calm - N/A   Clear
6:15 AM 24.8 °F - 5.0 °F 43% 30.11 in 10.0 mi Calm Calm - N/A   Clear
6:35 AM 23.0 °F - 5.0 °F 46% 30.11 in 10.0 mi Calm Calm - N/A   Clear
6:55 AM 23.0 °F - 5.0 °F 46% 30.11 in 10.0 mi Calm Calm - N/A   Clear
7:15 AM 24.8 °F - 5.0 °F 43% 30.12 in 10.0 mi Calm Calm - N/A   Clear
7:35 AM 23.0 °F - 3.2 °F 43% 30.12 in 10.0 mi Calm Calm - N/A   Clear
7:55 AM 26.6 °F - 5.0 °F 40% 30.13 in 10.0 mi Calm Calm - N/A   Clear
8:15 AM 28.4 °F - 5.0 °F 37% 30.14 in 10.0 mi Calm Calm - N/A   Clear
8:35 AM 32.0 °F - 5.0 °F 32% 30.14 in 10.0 mi Calm Calm - N/A   Clear
8:55 AM 33.8 °F - 8.6 °F 35% 30.15 in 7.0 mi Calm Calm - N/A   Clear
9:15 AM 37.4 °F - 8.6 °F 30% 30.15 in 10.0 mi Calm Calm - N/A   Clear
9:35 AM 42.8 °F - 8.6 °F 25% 30.15 in 10.0 mi Calm Calm - N/A   Clear
9:55 AM 46.4 °F - 8.6 °F 22% 30.15 in 10.0 mi Calm Calm - N/A   Clear
10:15 AM 53.6 °F - 5.0 °F 14% 30.14 in 10.0 mi East 5.8 mph - N/A   Clear
10:35 AM 53.6 °F - 3.2 °F 13% 30.14 in 10.0 mi NNE 5.8 mph - N/A   Clear
10:55 AM 55.4 °F - 5.0 °F 13% 30.14 in 10.0 mi NE 8.1 mph - N/A   Clear
11:15 AM 55.4 °F - 6.8 °F 14% 30.14 in 10.0 mi NE 5.8 mph - N/A   Clear
11:35 AM 55.4 °F - 8.6 °F 15% 30.14 in 10.0 mi East 9.2 mph - N/A   Clear
11:55 AM 55.4 °F - 8.6 °F 15% 30.14 in 10.0 mi NNE 5.8 mph - N/A   Clear
12:15 PM 57.2 °F - 8.6 °F 14% 30.13 in 10.0 mi ENE 5.8 mph - N/A   Clear
12:35 PM 55.4 °F - 10.4 °F 17% 30.12 in 10.0 mi East 5.8 mph - N/A   Clear
12:55 PM 57.2 °F - 12.2 °F 17% 30.11 in 10.0 mi ENE 10.4 mph - N/A   Clear
1:15 PM 57.2 °F - 14.0 °F 18% 30.11 in 10.0 mi ENE 10.4 mph - N/A   Clear
1:35 PM 59.0 °F - 15.8 °F 19% 30.11 in 10.0 mi East 10.4 mph 17.3 mph N/A   Clear
1:55 PM 59.0 °F - 17.6 °F 20% 30.10 in 10.0 mi ENE 9.2 mph - N/A   Clear
2:15 PM 57.2 °F - 19.4 °F 23% 30.09 in 10.0 mi NE 8.1 mph - N/A   Clear
2:35 PM 57.2 °F - 19.4 °F 23% 30.09 in 10.0 mi ENE 8.1 mph 16.1 mph N/A   Clear
2:55 PM 57.2 °F - 17.6 °F 21% 30.09 in 10.0 mi NE 8.1 mph - N/A   Clear
3:15 PM 57.2 °F - 17.6 °F 21% 30.09 in 10.0 mi ENE 10.4 mph - N/A   Clear
3:35 PM 57.2 °F - 15.8 °F 20% 30.09 in 10.0 mi ENE 8.1 mph - N/A   Clear
3:55 PM 57.2 °F - 14.0 °F 18% 30.09 in 10.0 mi NNE 8.1 mph - N/A   Clear
4:15 PM 55.4 °F - 14.0 °F 20% 30.10 in 10.0 mi NE 6.9 mph - N/A   Clear
4:55 PM 53.6 °F - 14.0 °F 21% 30.11 in 10.0 mi NNE 3.5 mph - N/A   Clear
5:15 PM 53.6 °F - 15.8 °F 22% 30.11 in 10.0 mi East 3.5 mph - N/A   Clear
5:35 PM 51.8 °F - 15.8 °F 24% 30.12 in 10.0 mi ESE 3.5 mph - N/A   Clear
5:55 PM 50.0 °F - 15.8 °F 26% 30.12 in 10.0 mi Calm Calm - N/A   Clear
6:15 PM 46.4 °F 45.2 °F 15.8 °F 29% 30.13 in 10.0 mi SE 3.5 mph - N/A   Clear
6:35 PM 44.6 °F - 15.8 °F 31% 30.14 in 10.0 mi Calm Calm - N/A   Clear
6:55 PM 42.8 °F - 15.8 °F 34% 30.14 in 10.0 mi Calm Calm - N/A   Clear
7:15 PM 41.0 °F - 14.0 °F 33% 30.15 in 10.0 mi Calm Calm - N/A   Clear
7:35 PM 39.2 °F - 14.0 °F 36% 30.15 in 10.0 mi Calm Calm - N/A   Clear
7:55 PM 37.4 °F - 14.0 °F 38% 30.16 in 10.0 mi Calm Calm - N/A   Clear
8:35 PM 33.8 °F - 14.0 °F 44% 30.17 in 10.0 mi Calm Calm - N/A   Clear
8:55 PM 33.8 °F - 14.0 °F 44% 30.17 in 10.0 mi Calm Calm - N/A   Clear
9:15 PM 33.8 °F - 14.0 °F 44% 30.18 in 10.0 mi Calm Calm - N/A   Clear
9:35 PM 32.0 °F - 14.0 °F 48% 30.18 in 10.0 mi Calm Calm - N/A   Clear
9:55 PM 32.0 °F - 14.0 °F 48% 30.18 in 10.0 mi Calm Calm - N/A   Clear
10:15 PM 32.0 °F - 14.0 °F 48% 30.19 in 10.0 mi Calm Calm - N/A   Clear
10:35 PM 32.0 °F - 14.0 °F 48% 30.18 in 10.0 mi Calm Calm - N/A   Clear
10:55 PM 32.0 °F - 14.0 °F 48% 30.18 in 10.0 mi Calm Calm - N/A   Clear
11:15 PM 30.2 °F - 14.0 °F 51% 30.18 in 10.0 mi Calm Calm - N/A   Clear
11:35 PM 30.2 °F - 14.0 °F 51% 30.18 in 10.0 mi Calm Calm - N/A   Clear